GW3653 Weather Reports


Display with metric or nautical units.
time (UTC)temp
F
wind
direction
speed
MPH
gust
MPH
rain 1hr
in
rain 24hr
in
rain mn
in
humidity
%
barometer
mb
20260904043539 56 225 8.0 19.0 0.00 0.06 0.06 67 1016.0
20260904042517 57 225 7.0 16.0 0.00 0.06 0.06 64 1016.0
20260904041519 57 248 5.0 19.0 0.00 0.06 0.06 63 1015.9
20260904040521 57 225 7.0 20.0 0.00 0.06 0.06 67 1015.5
20260904035519 57 225 8.0 18.0 0.00 0.06 0.06 65 1015.6
20260904034519 57 225 9.0 19.0 0.00 0.06 0.06 67 1015.5
20260904033539 57 225 7.0 19.0 0.00 0.06 0.06 69 1015.3
20260904032539 57 225 5.0 21.0 0.00 0.06 0.06 70 1015.4
20260904031519 56 225 7.0 24.0 0.00 0.06 0.06 69 1015.1
20260904030519 57 225 6.0 20.0 0.00 0.06 0.06 70 1014.9
20260904025519 57 248 5.0 13.0 0.00 0.06 0.06 67 1014.6
20260904024519 57 225 7.0 20.0 0.00 0.06 0.06 66 1014.6
20260904023520 57 225 6.0 22.0 0.00 0.06 0.06 69 1014.4
20260904022518 57 248 9.0 18.0 0.00 0.06 0.06 68 1014.1
20260904021519 56 225 7.0 21.0 0.00 0.06 0.06 71 1014.2
20260904020519 55 225 6.0 13.0 0.00 0.06 0.06 73 1014.2
20260904015519 54 225 6.0 17.0 0.00 0.06 0.06 76 1014.2
20260904014518 57 225 8.0 21.0 0.00 0.06 0.06 69 1014.0
20260904013538 56 225 8.0 23.0 0.00 0.06 0.06 69 1013.8
20260904012518 56 225 7.0 16.0 0.00 0.06 0.06 68 1013.6
20260904011518 56 225 9.0 26.0 0.00 0.06 0.06 67 1013.3
20260904010520 56 225 6.0 19.0 0.00 0.06 0.06 71 1013.1
20260904005519 54 225 7.0 25.0 0.00 0.06 0.06 74 1013.0
20260904004518 54 225 2.0 19.0 0.00 0.06 0.06 76 1012.8
20260904003538 54 225 7.0 19.0 0.00 0.06 0.06 75 1012.4
20260904002518 54 225 6.0 19.0 0.00 0.06 0.06 74 1012.3
20260904001518 55 225 10.0 21.0 0.00 0.06 0.06 71 1011.6
20260904000519 55 225 9.0 18.0 0.00 0.06 0.06 74 1011.3
20260903235519 54 248 8.0 23.0 0.00 0.06 0.06 78 1011.0
20260903234518 53 225 6.0 20.0 0.00 0.06 0.06 84 1010.9
20260903233518 51 225 11.0 28.0 0.00 0.06 0.06 92 1010.7
20260903232518 49 225 8.0 20.0 0.00 0.06 0.06 92 1010.2
20260903231538 49 248 10.0 31.0 0.02 0.06 0.06 92 1009.7
20260903230520 50 248 7.0 18.0 0.02 0.06 0.06 92 1009.5
20260903225518 51 225 12.0 34.0 0.02 0.06 0.06 93 1008.9
20260903224518 51 225 8.0 25.0 0.02 0.06 0.06 93 1008.4
20260903223518 52 225 6.0 21.0 0.02 0.06 0.06 93 1008.3
20260903222518 51 225 11.0 23.0 0.02 0.06 0.06 93 1008.3
20260903221518 51 248 1.0 9.0 0.01 0.04 0.04 93 1007.9
20260903220518 52 225 2.0 8.0 0.01 0.04 0.04 93 1007.5
20260903215538 52 248 1.0 9.0 0.01 0.04 0.04 93 1007.4
20260903214518 52 248 1.0 8.0 0.02 0.04 0.04 93 1007.4
20260903213518 52 248 1.0 5.0 0.02 0.03 0.03 93 1007.3
20260903212518 52 225 1.0 5.0 0.02 0.03 0.03 93 1007.4
20260903211518 52 225 1.0 7.0 0.02 0.03 0.03 92 1007.1
20260903210518 52 270 1.0 10.0 0.02 0.03 0.03 92 1006.9
20260903205518 52 248 3.0 14.0 0.02 0.03 0.03 92 1006.8
20260903204518 52 248 4.0 14.0 0.01 0.02 0.02 91 1006.8
20260903203518 52 225 3.0 15.0 0.00 0.01 0.01 89 1006.6
20260903202518 55 248 4.0 13.0 0.00 0.01 0.01 82 1006.5
20260903201518 55 225 6.0 18.0 0.00 0.01 0.01 79 1006.3
20260903200518 55 225 4.0 18.0 0.00 0.01 0.01 79 1006.2
20260903195518 55 248 4.0 14.0 0.00 0.01 0.01 79 1006.0
20260903194518 55 248 3.0 13.0 0.00 0.01 0.01 79 1005.7
20260903193518 55 270 3.0 12.0 0.00 0.01 0.01 80 1005.8
20260903192518 55 270 3.0 14.0 0.00 0.01 0.01 81 1005.9
20260903191518 55 225 4.0 20.0 0.00 0.01 0.01 81 1005.9
20260903190538 55 248 4.0 16.0 0.00 0.01 0.01 84 1005.9
20260903185518 55 225 2.0 10.0 0.00 0.01 0.01 86 1006.3
20260903184517 54 248 3.0 10.0 0.00 0.01 0.01 90 1006.2
20260903183518 54 225 4.0 18.0 0.00 0.01 0.01 92 1006.3
20260903182517 53 248 2.0 10.0 0.01 0.01 0.01 91 1006.3
20260903181517 53 270 5.0 13.0 0.01 0.01 0.01 91 1006.4
20260903180518 53 270 4.0 14.0 0.01 0.01 0.01 91 1006.5
20260903175517 53 248 5.0 14.0 0.01 0.01 0.01 91 1006.7
20260903174518 53 270 5.0 15.0 0.01 0.01 0.01 90 1006.6
20260903173537 54 248 7.0 17.0 0.01 0.01 0.01 88 1006.6
20260903172518 57 225 3.0 11.0 0.00 0.00 0.00 80 1007.0
20260903171518 57 248 3.0 12.0 0.00 0.00 0.00 78 1006.6
20260903170517 57 248 1.0 14.0 0.00 0.00 0.00 78 1006.5
20260903165517 57 248 1.0 9.0 0.00 0.00 0.00 78 1006.6
20260903164537 57 270 4.0 15.0 0.00 0.00 0.00 78 1006.6
20260903163518 56 248 1.0 11.0 0.00 0.00 0.00 79 1006.7
20260903162517 56 248 1.0 11.0 0.00 0.00 0.00 79 1006.8
20260903161518 56 270 2.0 14.0 0.00 0.00 0.00 79 1006.9
20260903160517 56 248 1.0 8.0 0.00 0.00 0.00 79 1006.9
20260903155538 56 225 1.0 8.0 0.00 0.00 0.00 79 1006.9
20260903154538 56 270 1.0 15.0 0.00 0.00 0.00 79 1007.2
20260903153518 56 248 1.0 8.0 0.00 0.00 0.00 79 1007.4
20260903152517 56 248 1.0 5.0 0.00 0.00 0.00 79 1007.6
20260903151517 56 270 1.0 5.0 0.00 0.00 0.00 79 1007.7
20260903150517 56 0.0 5.0 0.00 0.00 0.00 79 1007.7
20260903145518 56 0.0 5.0 0.00 0.00 0.00 79 1008.0
20260903144518 56 0.0 8.0 0.00 0.00 0.00 79 1008.4
20260903143517 56 0.0 3.0 0.00 0.00 0.00 79 1008.5
20260903142558 56 0.0 2.0 0.00 0.00 0.00 80 1008.8
20260903141518 56 0.0 1.0 0.00 0.00 0.00 82 1009.0
20260903140538 56 0.0 3.0 0.00 0.00 0.00 82 1009.1
20260903135537 57 248 1.0 9.0 0.00 0.00 0.00 81 1009.4
20260903134518 57 248 1.0 5.0 0.00 0.00 0.00 80 1009.5
20260903133538 59 225 4.0 13.0 0.00 0.00 0.00 76 1009.8
20260903132518 59 225 1.0 7.0 0.00 0.00 0.00 75 1009.9
20260903131517 59 248 1.0 4.0 0.00 0.00 0.00 75 1009.6
20260903130518 59 270 1.0 6.0 0.00 0.00 0.00 75 1009.8
20260903125517 59 270 2.0 8.0 0.00 0.00 0.00 74 1010.1
20260903124517 59 248 1.0 7.0 0.00 0.00 0.00 74 1010.1
20260903123538 59 0.0 4.0 0.00 0.00 0.00 74 1010.1
20260903122517 59 0.0 2.0 0.00 0.00 0.00 74 1010.1
20260903121518 59 270 1.0 10.0 0.00 0.00 0.00 74 1010.2
20260903120517 59 293 1.0 8.0 0.00 0.01 0.00 74 1010.3
20260903115518 58 0.0 4.0 0.00 0.02 0.00 75 1010.4
20260903114517 58 0.0 0.0 0.00 0.03 0.00 75 1010.4
20260903113517 59 0.0 1.0 0.00 0.03 0.00 74 1010.6
20260903112517 60 0.0 1.0 0.00 0.03 0.00 72 1010.5
20260903111517 61 0.0 2.0 0.00 0.03 0.00 71 1010.6
20260903110517 61 248 1.0 8.0 0.00 0.03 0.00 70 1010.6
20260903105517 61 0.0 4.0 0.00 0.03 0.00 70 1010.7
20260903104517 61 248 1.0 9.0 0.00 0.03 0.00 69 1010.7
20260903103538 62 0.0 1.0 0.00 0.03 0.00 69 1010.6
20260903102517 62 0.0 2.0 0.00 0.03 0.00 68 1010.5
20260903101517 62 0.0 8.0 0.00 0.03 0.00 69 1010.5
20260903100537 62 0.0 6.0 0.00 0.03 0.00 70 1010.4
20260903095537 62 0.0 2.0 0.00 0.03 0.00 72 1010.4
20260903094517 62 0.0 1.0 0.00 0.03 0.00 73 1010.4
20260903093517 63 0.0 0.0 0.00 0.03 0.00 71 1010.2
20260903092519 65 0.0 1.0 0.00 0.03 0.00 69 1010.2
20260903091520 66 0.0 1.0 0.00 0.03 0.00 66 1010.3
20260903090539 67 0.0 1.0 0.00 0.03 0.00 66 1010.4
20260903085519 66 0.0 7.0 0.00 0.03 0.00 67 1010.4
20260903084520 65 0.0 1.0 0.00 0.03 0.00 66 1010.5
20260903083539 67 0.0 1.0 0.00 0.03 0.00 63 1010.6
20260903082519 68 0.0 3.0 0.00 0.03 0.00 63 1010.7
20260903081539 67 248 1.0 6.0 0.00 0.03 0.00 63 1010.9
20260903080559 67 0.0 5.0 0.00 0.03 0.00 62 1011.0
20260903075559 69 0.0 2.0 0.00 0.03 0.00 63 1011.1
20260903074519 68 0.0 2.0 0.00 0.03 0.00 63 1011.1
20260903073519 68 0.0 3.0 0.00 0.03 0.00 63 1011.3
20260903072519 67 203 1.0 9.0 0.00 0.03 0.00 64 1011.4
20260903071518 67 270 1.0 4.0 0.00 0.03 0.00 65 1011.7
20260903070519 67 0.0 4.0 0.00 0.03 0.00 64 1011.8
20260903065519 67 270 1.0 8.0 0.00 0.03 0.00 64 1012.0
20260903064539 67 0.0 5.0 0.00 0.03 0.00 66 1012.1
20260903063519 66 248 1.0 5.0 0.00 0.04 0.00 68 1012.1
20260903062559 67 0.0 5.0 0.00 0.04 0.00 65 1012.2
20260903061519 66 270 1.0 8.0 0.00 0.04 0.00 65 1012.2
20260903060519 66 0.0 5.0 0.00 0.04 0.00 66 1012.4
20260903055559 67 248 1.0 8.0 0.00 0.04 0.00 64 1012.6
20260903054518 67 270 1.0 7.0 0.00 0.04 0.00 64 1012.8
20260903053519 66 270 1.0 6.0 0.00 0.04 0.00 66 1012.8
20260903052518 65 270 2.0 12.0 0.00 0.04 0.00 66 1013.1
20260903051539 64 270 2.0 12.0 0.00 0.04 0.00 69 1013.4
20260903050519 65 225 1.0 10.0 0.00 0.04 0.00 68 1013.8
20260903045519 64 225 1.0 5.0 0.00 0.04 0.00 70 1014.0
20260903044539 64 0.0 3.0 0.00 0.04 0.00 70 1014.1